DELTA 2 R/B(1)

Last updated on Thu Nov 21 2024 00:02:12 GMT+0000 (Coordinated Universal Time)

1 20453U 90008B 24325.39912185 .00037448 00000+0 11519-2 0 9999 2 20453 35.6179 311.6677 0175908 306.5570 51.9077 15.18882334853204
UTC large
Height (km)
Speed (km/s)
/
Latitude / Longitude
Inclination (degrees)
Orbital Period (minutes)
Azimuth
Elevation
Range (km)
Doppler Factor

Next 0 passes for location: London (51.5072 / 0.1276)

Sorry there are no passes over London.